TimeAKDT,TemperatureF,Dew PointF,Humidity,Sea Level PressureIn,VisibilityMPH,Wind Direction,Wind SpeedMPH,Gust SpeedMPH,PrecipitationIn,Events,Conditions,WindDirDegrees,DateUTC
12:16 AM,48.2,46.4,93,30.20,0.8,ENE,4.6,-,N/A,,Overcast,60,2012-09-18 08:16:00
12:36 AM,48.2,46.4,93,30.21,0.5,Calm,Calm,-,N/A,,Overcast,0,2012-09-18 08:36:00
12:56 AM,48.2,46.4,93,30.21,0.5,Calm,Calm,-,N/A,,Overcast,0,2012-09-18 08:56:00
1:16 AM,48.2,46.4,93,30.21,0.5,Calm,Calm,-,N/A,,Overcast,0,2012-09-18 09:16:00
1:36 AM,48.2,46.4,93,30.21,0.2,East,3.5,-,N/A,,Overcast,80,2012-09-18 09:36:00
1:56 AM,46.4,46.4,100,30.21,0.5,Calm,Calm,-,N/A,,Overcast,0,2012-09-18 09:56:00
2:16 AM,46.4,44.6,93,30.22,3.0,NE,3.5,-,N/A,,Overcast,40,2012-09-18 10:16:00
2:36 AM,46.4,44.6,93,30.22,0.8,NE,4.6,-,N/A,,Overcast,40,2012-09-18 10:36:00
2:56 AM,44.6,44.6,100,30.23,0.5,NE,4.6,-,N/A,,Overcast,40,2012-09-18 10:56:00
3:16 AM,44.6,44.6,100,30.22,0.2,Calm,Calm,-,N/A,,Overcast,0,2012-09-18 11:16:00
3:36 AM,44.6,44.6,100,30.22,0.5,NE,3.5,-,N/A,,Overcast,50,2012-09-18 11:36:00
3:56 AM,44.6,44.6,100,30.22,0.5,Calm,Calm,-,N/A,,Overcast,0,2012-09-18 11:56:00
4:16 AM,44.6,44.6,100,30.22,0.8,Calm,Calm,-,N/A,,Overcast,0,2012-09-18 12:16:00
4:36 AM,44.6,42.8,93,30.23,0.5,Calm,Calm,-,N/A,,Overcast,0,2012-09-18 12:36:00
4:56 AM,44.6,42.8,93,30.23,0.8,Calm,Calm,-,N/A,,Overcast,0,2012-09-18 12:56:00
5:16 AM,44.6,42.8,93,30.23,0.8,Calm,Calm,-,N/A,,Overcast,0,2012-09-18 13:16:00
5:36 AM,44.6,42.8,93,30.23,5.0,Calm,Calm,-,N/A,,Overcast,0,2012-09-18 13:36:00
5:56 AM,44.6,42.8,93,30.23,4.0,Calm,Calm,-,N/A,,Overcast,0,2012-09-18 13:56:00
6:16 AM,44.6,42.8,93,30.23,2.5,Calm,Calm,-,N/A,,Overcast,0,2012-09-18 14:16:00
6:36 AM,44.6,42.8,93,30.24,0.8,NW,3.5,-,N/A,,Overcast,310,2012-09-18 14:36:00
6:56 AM,44.6,41.0,87,30.23,1.0,SSW,3.5,-,N/A,,Overcast,210,2012-09-18 14:56:00
7:16 AM,42.8,41.0,93,30.24,0.5,WSW,3.5,-,N/A,,Mostly Cloudy,250,2012-09-18 15:16:00
7:36 AM,42.8,41.0,93,30.24,0.2,WSW,3.5,-,N/A,,Mostly Cloudy,250,2012-09-18 15:36:00
7:56 AM,42.8,41.0,93,30.25,0.2,Calm,Calm,-,N/A,,Mostly Cloudy,0,2012-09-18 15:56:00
8:16 AM,42.8,41.0,93,30.25,0.2,Calm,Calm,-,N/A,,Mostly Cloudy,0,2012-09-18 16:16:00
8:36 AM,42.8,42.8,100,30.25,0.2,ENE,4.6,-,N/A,,Mostly Cloudy,70,2012-09-18 16:36:00
8:56 AM,42.8,42.8,100,30.26,0.2,East,4.6,-,N/A,,Mostly Cloudy,80,2012-09-18 16:56:00
9:16 AM,44.6,42.8,93,30.27,0.2,NE,3.5,-,N/A,,Mostly Cloudy,50,2012-09-18 17:16:00
9:36 AM,42.8,42.8,100,30.26,0.2,ENE,5.8,-,N/A,,Mostly Cloudy,60,2012-09-18 17:36:00
9:56 AM,44.6,42.8,93,30.27,0.2,NE,5.8,-,N/A,,Mostly Cloudy,50,2012-09-18 17:56:00
10:16 AM,44.6,42.8,93,30.27,0.2,ENE,4.6,-,N/A,,Mostly Cloudy,60,2012-09-18 18:16:00
10:36 AM,44.6,42.8,93,30.27,0.5,East,4.6,-,N/A,,Mostly Cloudy,90,2012-09-18 18:36:00
10:56 AM,44.6,42.8,93,30.27,5.0,ENE,5.8,-,N/A,,Scattered Clouds,70,2012-09-18 18:56:00
11:16 AM,44.6,42.8,93,30.28,5.0,ENE,4.6,-,N/A,,Scattered Clouds,60,2012-09-18 19:16:00
11:36 AM,44.6,42.8,93,30.28,5.0,NE,6.9,-,N/A,,Scattered Clouds,50,2012-09-18 19:36:00
11:56 AM,44.6,42.8,93,30.29,0.8,NE,5.8,-,N/A,,Mostly Cloudy,50,2012-09-18 19:56:00
12:16 PM,44.6,42.8,93,30.29,7.0,NE,4.6,-,N/A,,Scattered Clouds,50,2012-09-18 20:16:00
12:36 PM,46.4,44.6,93,30.29,10.0,ENE,4.6,-,N/A,,Partly Cloudy,60,2012-09-18 20:36:00
12:56 PM,46.4,42.8,87,30.29,10.0,NE,5.8,-,N/A,,Unknown,50,2012-09-18 20:56:00
1:16 PM,46.4,42.8,87,30.29,10.0,NNE,4.6,-,N/A,,Partly Cloudy,30,2012-09-18 21:16:00
1:36 PM,48.2,44.6,87,30.28,10.0,Calm,Calm,-,N/A,,Partly Cloudy,0,2012-09-18 21:36:00
1:56 PM,50.0,44.6,82,30.28,10.0,NE,3.5,-,N/A,,Partly Cloudy,50,2012-09-18 21:56:00
2:16 PM,50.0,44.6,82,30.28,10.0,NE,5.8,-,N/A,,Partly Cloudy,50,2012-09-18 22:16:00
2:36 PM,48.2,42.8,82,30.28,10.0,ENE,6.9,-,N/A,,Partly Cloudy,60,2012-09-18 22:36:00
2:56 PM,48.2,44.6,87,30.28,10.0,East,5.8,-,N/A,,Scattered Clouds,90,2012-09-18 22:56:00
3:16 PM,48.2,44.6,87,30.28,10.0,East,4.6,-,N/A,,Scattered Clouds,80,2012-09-18 23:16:00
3:36 PM,50.0,42.8,76,30.28,10.0,East,4.6,-,N/A,,Scattered Clouds,80,2012-09-18 23:36:00
3:56 PM,51.8,42.8,71,30.27,10.0,ENE,4.6,-,N/A,,Scattered Clouds,60,2012-09-18 23:56:00
4:16 PM,51.8,42.8,71,30.27,10.0,NE,4.6,-,N/A,,Scattered Clouds,50,2012-09-19 00:16:00
4:36 PM,51.8,42.8,71,30.26,10.0,NE,4.6,-,N/A,,Scattered Clouds,40,2012-09-19 00:36:00
4:56 PM,51.8,42.8,71,30.25,10.0,NE,5.8,-,N/A,,Scattered Clouds,40,2012-09-19 00:56:00
5:16 PM,51.8,42.8,71,30.25,10.0,ENE,4.6,-,N/A,,Scattered Clouds,60,2012-09-19 01:16:00
5:36 PM,51.8,42.8,71,30.24,10.0,Calm,Calm,-,N/A,,Scattered Clouds,0,2012-09-19 01:36:00
5:56 PM,51.8,44.6,76,30.24,10.0,Calm,Calm,-,N/A,,Scattered Clouds,0,2012-09-19 01:56:00
6:16 PM,51.8,44.6,76,30.24,10.0,Calm,Calm,-,N/A,,Scattered Clouds,0,2012-09-19 02:16:00
6:56 PM,46.4,44.6,93,30.25,10.0,East,4.6,-,N/A,,Clear,90,2012-09-19 02:56:00
7:16 PM,46.4,42.8,87,30.25,10.0,East,5.8,-,N/A,,Clear,100,2012-09-19 03:16:00
7:36 PM,46.4,42.8,87,30.25,10.0,ESE,5.8,-,N/A,,Clear,120,2012-09-19 03:36:00
7:56 PM,46.4,42.8,87,30.25,10.0,ENE,3.5,-,N/A,,Clear,70,2012-09-19 03:56:00
8:16 PM,46.4,42.8,87,30.25,10.0,SSE,5.8,-,N/A,,Clear,150,2012-09-19 04:16:00
8:36 PM,46.4,42.8,87,30.25,10.0,Calm,Calm,-,N/A,,Clear,0,2012-09-19 04:36:00
8:56 PM,44.6,42.8,93,30.24,10.0,Calm,Calm,-,N/A,,Clear,0,2012-09-19 04:56:00
9:16 PM,44.6,41.0,87,30.24,10.0,Calm,Calm,-,N/A,,Clear,0,2012-09-19 05:16:00
9:36 PM,44.6,42.8,93,30.24,10.0,WSW,3.5,-,N/A,,Clear,250,2012-09-19 05:36:00
9:56 PM,44.6,41.0,87,30.24,10.0,SSW,3.5,-,N/A,,Clear,210,2012-09-19 05:56:00
10:16 PM,44.6,42.8,93,30.24,10.0,South,3.5,-,N/A,,Clear,180,2012-09-19 06:16:00
10:36 PM,42.8,42.8,100,30.24,10.0,Calm,Calm,-,N/A,,Clear,0,2012-09-19 06:36:00
10:56 PM,42.8,41.0,93,30.24,10.0,Calm,Calm,-,N/A,,Clear,0,2012-09-19 06:56:00
11:16 PM,42.8,39.2,87,30.24,10.0,Calm,Calm,-,N/A,,Clear,0,2012-09-19 07:16:00
11:36 PM,42.8,41.0,93,30.24,10.0,Calm,Calm,-,N/A,,Scattered Clouds,0,2012-09-19 07:36:00
11:56 PM,41.0,39.2,93,30.24,10.0,South,3.5,-,N/A,,Partly Cloudy,170,2012-09-19 07:56:00